Location: Lussas
(44.6119°N, 4.4726°E)
Time: 05:30:59
(UTC+00:00)

ARGOS Delta rocket - Pass Details

Date: 26 November 2020
Orbit: 634 x 839 km, 96.5° (Epoch: 18 January)

Event Time Altitude Azimuth Distance (km) Brightness Sun altitude
Rises 04:35:25 0° 7° (N) 3,325 7.3 -24.0°
Reaches altitude 10° 04:37:51 10° 5° (N) 2,364 6.5 -23.6°
Maximum altitude 04:43:00 62° 286° (WNW) 853 3.9 -22.7°
Drops below altitude 10° 04:47:50 10° 206° (SSW) 2,218 6.2 -21.8°
Sets 04:50:03 0° 203° (SSW) 3,103 7.0 -21.4°
